This is the latest recevied weather packets stored in our database for station/object N5ATR. If no packets are shown the sender has not sent any weather packets the latest 1 day(s).
| Time | Temp. | Humidity | Pressure | Rain* | Wind** | Luminosity | Snow |
|---|---|---|---|---|---|---|---|
| 1778041373 | 5.56° C | 91% | 1012.7 hPa | 0 mm | - | 0 W/m² | - |
| 1778041071 | 5.56° C | 91% | 1012.8 hPa | 1.27 mm | - | 0 W/m² | - |
| 1778040768 | 5.56° C | 91% | 1012.8 hPa | 1.27 mm | - | 0 W/m² | - |
| 1778040465 | 5.56° C | 91% | 1012.3 hPa | 0 mm | - | 0 W/m² | - |
| 1778040162 | 5.56° C | 90% | 1012.7 hPa | 0 mm | - | 0 W/m² | - |
| 1778039859 | 5.56° C | 90% | 1012.3 hPa | 1.78 mm | - | 0 W/m² | - |
| 1778039556 | 5° C | 89% | 1012.3 hPa | 1.78 mm | - | 0 W/m² | - |
| 1778039253 | 5.56° C | 87% | 1012.5 hPa | 0 mm | - | 0 W/m² | - |
| 1778038950 | 6.11° C | 83% | 1011.9 hPa | 0 mm | - | 0 W/m² | - |
| 1778038647 | 6.67° C | 81% | 1011.8 hPa | 0 mm | - | 0 W/m² | - |
| 1778038344 | 6.67° C | 80% | 1011.6 hPa | 0 mm | - | 0 W/m² | - |
| 1778038041 | 6.67° C | 78% | 1011.3 hPa | 0 mm | - | 0 W/m² | - |
| 1778037738 | 6.67° C | 78% | 1011.8 hPa | 0 mm | - | 0 W/m² | - |
| 1778037132 | 7.22° C | 77% | 1011.6 hPa | 0 mm | - | 0 W/m² | - |
| 1778036830 | 7.22° C | 76% | 1011.7 hPa | 0 mm | - | 0 W/m² | - |
| 1778036527 | 7.78° C | 75% | 1011.6 hPa | 0 mm | - | 0 W/m² | - |
| 1778036224 | 7.78° C | 73% | 1011.4 hPa | 0 mm | - | 0 W/m² | - |
| 1778035920 | 7.78° C | 71% | 1011.3 hPa | 0 mm | - | 0 W/m² | - |
| 1778035314 | 8.33° C | 70% | 1011.3 hPa | 0 mm | - | 0 W/m² | - |
| 1778035010 | 8.89° C | 70% | 1011.1 hPa | 0 mm | - | 0 W/m² | - |
| 1778034102 | 8.33° C | 69% | 1010.8 hPa | 0 mm | - | 0 W/m² | - |
| 1778033800 | 8.33° C | 68% | 1010.6 hPa | 0 mm | - | 0 W/m² | - |
| 1778033496 | 8.33° C | 68% | 1010.5 hPa | 0 mm | - | 0 W/m² | - |
| 1778033193 | 8.33° C | 67% | 1010.3 hPa | 0 mm | - | 0 W/m² | - |
| 1778032589 | 8.89° C | 66% | 1010.2 hPa | 0 mm | - | 2 W/m² | - |
* Rain latest hour (hover to see other rain measurements)
** Current wind speed in m/s (hover to see current wind gust speed)